Flag for Bosnia-Herzegovina Weather past 2 weeks in Sarajevo, Bosnia-Herzegovina

55 °F

Passing clouds.

Feels Like: 55 °F
Forecast: 46 / 54 °F
Wind: No wind

Location: Sarajevo / Butmir

Current Time: Oct 10, 2015 at 4:31:57 AM

Latest Report: Oct 10, 2015 at 4:00 AM

Visibility: N/A

Pressure: 30.04 "Hg (28.21 "Hg at 526m altitude)

Humidity: 88%

Dew point: 52 °F

Location of SarajevoLocation

Historic Weather in Sarajevo — Graph


Sarajevo temperature yesterday

Maximum temperature yesterday: 63 °F (at 2:00 PM)
Minimum temperature yesterday: 55 °F (at 12:00 AM)
Average temperature yesterday: 58 °F

Past Weeks' High & Low Weather Summary

High73 °F (Oct 4, 3:00 PM)100% (Sep 25, 3:00 AM)30.39 "Hg (Sep 25, 3:00 AM)
Low43 °F (Oct 2, 7:00 AM)47% (Oct 4, 3:00 PM)29.83 "Hg (Oct 7, 5:30 AM)
Average56 °F86%30.16 "Hg
* Reported Sep 25 3:00 AM — Oct 10 3:00 AM, Sarajevo, Weather by CustomWeather, © 2015

Note: Actual official high and low records may vary slightly from our data, if they occured in-between our weather recording intervals... More about our weather records


Sarajevo weather history for previous 24 hours

Time TempWeatherWind HumidityBarometerVisibility
3:00 AM
Sat, Oct 10
55 °FPassing clouds.1 mph88%30.07 "HgN/A
2:00 AM55 °FPartly cloudy.1 mph94%30.07 "HgN/A
1:00 AM55 °FPassing clouds.2 mph88%30.09 "HgN/A
12:00 AM55 °FPartly cloudy.2 mph94%30.09 "HgN/A
11:00 PM
Fri, Oct 9
55 °FPartly cloudy.5 mph94%30.09 "HgN/A
10:30 PM55 °FPartly cloudy.3 mph94%30.09 "HgN/A
10:00 PM55 °FPartly cloudy.3 mph94%30.09 "HgN/A
9:30 PM57 °FPartly cloudy.2 mph88%30.09 "HgN/A
9:00 PM57 °FPartly cloudy.2 mph94%30.09 "HgN/A
8:30 PM57 °FLight rain. Partly cloudy.5 mph94%30.09 "HgN/A
8:00 PM59 °FPassing clouds.2 mph82%30.07 "HgN/A
7:30 PM59 °FPassing clouds.3 mph82%30.07 "HgN/A
7:00 PM61 °FPartly sunny.1 mph83%30.07 "HgN/A
6:30 PM61 °FScattered clouds.1 mph77%30.07 "HgN/A
6:00 PM61 °FScattered clouds.1 mph83%30.07 "HgN/A
5:30 PM63 °FScattered clouds.No wind68%30.07 "HgN/A
4:30 PM63 °FScattered clouds.2 mph68%30.07 "HgN/A
4:00 PM63 °FScattered clouds.1 mph68%30.07 "HgN/A
3:30 PM63 °FScattered clouds.2 mph68%30.07 "HgN/A
3:00 PM63 °FScattered clouds.2 mph73%30.07 "HgN/A
2:30 PM63 °FPartly sunny.1 mph73%30.07 "HgN/A
2:00 PM63 °FBroken clouds.1 mph73%30.07 "HgN/A
1:30 PM61 °FPartly sunny.2 mph72%30.09 "HgN/A
1:00 PM61 °FPartly sunny.1 mph72%30.09 "HgN/A
12:30 PM59 °FPartly sunny.1 mph82%30.09 "HgN/A
12:00 PM59 °FPartly sunny.1 mph82%30.09 "HgN/A
11:30 AM59 °FPartly sunny.1 mph88%30.09 "HgN/A
11:00 AM59 °FBroken clouds.1 mph82%30.09 "HgN/A
10:30 AM57 °FBroken clouds.1 mph88%30.09 "HgN/A
10:00 AM57 °FBroken clouds.1 mph94%30.09 "Hg4 mi
9:30 AM57 °FBroken clouds.1 mph94%30.09 "Hg4 mi
9:00 AM55 °FBroken clouds.2 mph100%30.09 "Hg4 mi
8:30 AM55 °FBroken clouds.1 mph100%30.09 "Hg4 mi
8:00 AM55 °FFog.1 mph100%30.09 "Hg2 mi
7:30 AM55 °FFog.No wind100%30.07 "Hg2 mi
7:00 AM55 °FFog.No wind100%30.07 "Hg3 mi
6:30 AM55 °FFog.No wind100%30.07 "Hg3 mi
6:00 AM55 °FFog.No wind100%30.07 "Hg3 mi
5:30 AM55 °FFog.No wind100%30.07 "Hg3 mi
5:00 AM55 °FFog.1 mph100%30.07 "Hg3 mi
4:00 AM55 °FLight rain. Fog.1 mph100%30.07 "Hg3 mi
Weather by CustomWeather, © 2015

See weather overviewHow to use our weather pages